DW1009 Weather Reports


Display with metric or nautical units.
time (UTC)temp
F
wind
direction
speed
MPH
gust
MPH
rain 1hr
in
rain 24hr
in
rain mn
in
humidity
%
barometer
mb
20260510043353 59 337 2.0 4.0 0.00 0.00 0.00 95 1011.0
20260510041353 60 283 1.0 5.0 0.00 0.00 0.00 95 1010.9
20260510040353 60 332 3.0 4.0 0.00 0.00 0.00 95 1010.9
20260510035353 60 290 1.0 5.0 0.00 0.00 0.00 94 1011.0
20260510034353 60 240 0.0 6.0 0.00 0.00 0.00 94 1010.8
20260510033353 60 336 3.0 4.0 0.00 0.00 0.00 94 1010.4
20260510032353 60 347 3.0 5.0 0.00 0.00 0.00 94 1010.3
20260510031353 60 258 1.0 4.0 0.00 0.00 0.00 94 1010.3
20260510030353 61 340 4.0 5.0 0.00 0.00 0.00 94 1010.2
20260510025353 61 298 2.0 4.0 0.00 0.00 0.00 93 1010.0
20260510024353 61 295 2.0 5.0 0.00 0.00 0.00 93 1009.9
20260510023353 61 290 2.0 5.0 0.00 0.00 0.00 93 1009.8
20260510022354 61 320 1.0 7.0 0.00 0.00 0.00 93 1009.7
20260510021353 61 250 3.0 6.0 0.00 0.00 0.00 93 1009.8
20260510020353 62 343 5.0 5.0 0.00 0.00 0.00 92 1009.7
20260510015353 62 280 3.0 4.0 0.00 0.00 0.00 92 1009.7
20260510014353 62 202 1.0 5.0 0.00 0.00 0.00 92 1009.7
20260510013353 62 288 3.0 8.0 0.00 0.00 0.00 91 1009.7
20260510012353 62 318 1.0 8.0 0.00 0.00 0.00 91 1009.7
20260510010353 63 333 2.0 7.0 0.00 0.00 0.00 90 1009.5
20260510005353 63 317 2.0 7.0 0.00 0.00 0.00 90 1009.5
20260510004353 63 173 1.0 8.0 0.00 0.00 0.00 90 1009.7
20260510003352 63 235 1.0 8.0 0.00 0.00 0.00 90 1009.7
20260510002353 64 215 5.0 9.0 0.00 0.00 0.00 89 1009.7
20260510001353 64 269 4.0 7.0 0.00 0.00 0.00 88 1009.8
20260510000353 65 239 3.0 7.0 0.00 0.00 0.00 88 1009.8
20260509234353 65 245 0.0 7.0 0.00 0.00 0.00 86 1009.8
20260509233353 65 229 3.0 9.0 0.00 0.00 0.00 86 1009.8
20260509232353 66 232 5.0 9.0 0.00 0.00 0.00 86 1009.8
20260509231353 66 261 3.0 8.0 0.00 0.00 0.00 85 1009.9
20260509230353 67 240 4.0 9.0 0.00 0.00 0.00 84 1009.9
20260509224353 66 104 2.0 8.0 0.00 0.00 0.00 84 1010.0
20260509223353 67 257 2.0 8.0 0.00 0.00 0.00 84 1010.0
20260509222352 67 238 2.0 9.0 0.00 0.00 0.00 83 1010.1
20260509221353 67 261 4.0 10.0 0.00 0.00 0.00 84 1010.2
20260509220352 67 297 4.0 8.0 0.00 0.00 0.00 83 1010.4
20260509215352 68 236 5.0 9.0 0.00 0.00 0.00 82 1010.5
20260509213352 69 206 2.0 8.0 0.00 0.00 0.00 80 1010.5
20260509212352 69 263 7.0 8.0 0.00 0.00 0.00 81 1010.6
20260509211353 68 326 3.0 8.0 0.00 0.00 0.00 82 1010.6
20260509210353 68 248 4.0 8.0 0.00 0.00 0.00 82 1010.8
20260509205352 68 254 5.0 8.0 0.00 0.00 0.00 82 1010.9
20260509204352 68 254 4.0 8.0 0.00 0.00 0.00 82 1010.9
20260509203352 68 185 2.0 9.0 0.00 0.00 0.00 83 1010.9
20260509202353 67 267 2.0 9.0 0.00 0.00 0.00 84 1011.0
20260509201353 67 237 2.0 8.0 0.00 0.00 0.00 84 1011.0
20260509200352 67 272 2.0 6.0 0.00 0.00 0.00 84 1011.0
20260509195352 67 248 4.0 7.0 0.00 0.00 0.00 85 1011.1
20260509194352 67 232 4.0 8.0 0.00 0.00 0.00 85 1011.2
20260509190352 66 244 4.0 8.0 0.00 0.00 0.00 85 1011.6
20260509185352 66 184 3.0 6.0 0.00 0.00 0.00 86 1011.6
20260509184352 66 292 3.0 8.0 0.00 0.00 0.00 86 1011.8
20260509183352 66 313 2.0 8.0 0.00 0.00 0.00 87 1011.8
20260509181352 65 250 7.0 7.0 0.00 0.00 0.00 87 1011.7
20260509180352 65 205 3.0 6.0 0.00 0.00 0.00 88 1011.9
20260509174352 65 218 4.0 6.0 0.00 0.00 0.00 87 1012.1
20260509173353 65 318 0.0 5.0 0.00 0.00 0.00 89 1012.0
20260509172352 64 283 1.0 4.0 0.00 0.00 0.00 89 1012.1
20260509171352 64 327 2.0 4.0 0.00 0.00 0.00 89 1011.9
20260509170352 65 270 2.0 5.0 0.00 0.00 0.00 88 1011.8
20260509164352 65 155 1.0 3.0 0.00 0.00 0.00 86 1011.8
20260509163353 65 249 2.0 5.0 0.00 0.00 0.00 86 1011.8
20260509162352 65 175 0.0 2.0 0.00 0.00 0.00 86 1011.8
20260509161352 65 51 0.0 3.0 0.00 0.00 0.00 87 1011.8
20260509160352 64 148 1.0 3.0 0.00 0.00 0.00 87 1011.7
20260509153352 64 104 1.0 3.0 0.00 0.00 0.00 89 1011.7
20260509152352 64 138 0.0 2.0 0.00 0.00 0.00 89 1011.7
20260509151352 63 98 1.0 2.0 0.00 0.00 0.00 90 1011.7
20260509150352 63 66 0.0 2.0 0.00 0.00 0.00 90 1011.7
20260509145352 63 32 1.0 3.0 0.00 0.00 0.00 90 1011.8
20260509144352 63 58 2.0 4.0 0.00 0.00 0.00 91 1011.7
20260509143352 62 69 3.0 4.0 0.00 0.00 0.00 91 1011.7
20260509141353 62 64 2.0 3.0 0.00 0.00 0.00 92 1011.7
20260509140352 62 105 1.0 2.0 0.00 0.00 0.00 92 1011.7
20260509135352 62 30 0.0 2.0 0.00 0.00 0.00 93 1011.6
20260509134352 61 66 1.0 2.0 0.00 0.00 0.00 93 1011.6
20260509133352 61 159 1.0 2.0 0.00 0.00 0.00 93 1011.6
20260509132352 61 134 1.0 3.0 0.00 0.00 0.00 93 1011.5
20260509131352 61 96 0.0 3.0 0.00 0.00 0.00 93 1011.3
20260509130352 61 145 1.0 2.0 0.00 0.00 0.00 93 1011.1
20260509125352 61 138 1.0 3.0 0.00 0.00 0.00 93 1011.1
20260509124352 61 141 2.0 2.0 0.00 0.00 0.00 94 1011.0
20260509123352 61 141 1.0 3.0 0.00 0.00 0.00 94 1010.9
20260509122352 61 141 1.0 4.0 0.00 0.00 0.00 94 1010.9
20260509121352 61 163 1.0 3.0 0.00 0.00 0.00 94 1011.0
20260509120351 61 133 0.0 2.0 0.00 0.00 0.00 94 1010.9
20260509115352 61 165 2.0 2.0 0.00 0.00 0.00 95 1011.0
20260509114351 61 177 1.0 1.0 0.00 0.00 0.00 95 1011.0
20260509113352 61 177 1.0 2.0 0.00 0.00 0.00 95 1011.0
20260509112351 61 232 0.0 2.0 0.00 0.00 0.00 95 1011.0
20260509110352 61 166 0.0 3.0 0.00 0.00 0.00 95 1010.9
20260509105351 61 227 2.0 2.0 0.00 0.00 0.00 95 1011.0
20260509104351 61 234 0.0 2.0 0.00 0.00 0.00 95 1011.1
20260509103352 61 238 0.0 2.0 0.00 0.00 0.00 94 1011.0
20260509102352 61 233 0.0 2.0 0.00 0.00 0.00 94 1011.1
20260509101351 61 233 0.0 2.0 0.00 0.00 0.00 94 1011.2
20260509100352 61 233 0.0 1.0 0.00 0.00 0.00 95 1011.3
20260509094351 60 252 1.0 2.0 0.00 0.00 0.00 95 1011.5
20260509093351 60 246 0.0 3.0 0.00 0.00 0.00 94 1011.6
20260509092352 60 195 0.0 2.0 0.00 0.00 0.00 94 1011.5
20260509091351 60 213 0.0 3.0 0.00 0.00 0.00 94 1011.7
20260509090351 61 277 0.0 3.0 0.00 0.00 0.00 94 1011.7
20260509085352 61 220 0.0 2.0 0.00 0.00 0.00 94 1011.8
20260509084351 61 215 2.0 4.0 0.00 0.00 0.00 94 1011.9
20260509083351 61 252 0.0 3.0 0.00 0.00 0.00 93 1011.9
20260509081351 61 171 0.0 3.0 0.00 0.00 0.00 93 1012.1
20260509080352 61 225 1.0 3.0 0.00 0.00 0.00 93 1012.0
20260509075352 61 205 2.0 3.0 0.00 0.00 0.00 93 1012.2
20260509074351 61 167 0.0 2.0 0.00 0.00 0.00 93 1012.2
20260509073351 61 238 1.0 2.0 0.00 0.00 0.00 93 1012.2
20260509071351 61 269 1.0 2.0 0.00 0.00 0.00 93 1012.2
20260509064351 60 195 0.0 2.0 0.00 0.00 0.00 93 1012.3
20260509063351 60 240 1.0 3.0 0.00 0.00 0.00 93 1012.3
20260509062351 60 238 1.0 3.0 0.00 0.00 0.00 93 1012.3
20260509061352 60 233 1.0 3.0 0.00 0.00 0.00 93 1012.4
20260509060351 60 333 1.0 3.0 0.00 0.00 0.00 93 1012.3
20260509055351 60 318 0.0 2.0 0.00 0.00 0.00 93 1012.4
20260509054351 61 282 1.0 4.0 0.00 0.00 0.00 93 1012.4
20260509051352 60 269 1.0 2.0 0.00 0.00 0.00 93 1012.4
20260509050351 60 259 0.0 3.0 0.00 0.00 0.00 93 1012.4
20260509045351 60 211 0.0 4.0 0.00 0.00 0.00 93 1012.3
20260509044351 61 229 2.0 4.0 0.00 0.00 0.00 93 1012.2